Le nostre stazioni meteo in Italia

Pubblicità
Il mio iltempo24.it
Napoli/Capodichino, Italia (16289): Temperatura & dewpoint: 18.07.2019 07:00:00 - 24.07.2019 07:00:00 (CEST)Napoli/Capodichino, Italia (16289): velocità del vento: 18.07.2019 07:00:00 - 24.07.2019 07:00:00 (CEST)Napoli/Capodichino, Italia (16289): direzione del vento: 18.07.2019 07:00:00 - 24.07.2019 07:00:00 (CEST)Napoli/Capodichino, Italia (16289): reduced air pressure: 18.07.2019 07:00:00 - 24.07.2019 07:00:00 (CEST)Napoli/Capodichino, Italia (16289): visibility: 18.07.2019 07:00:00 - 24.07.2019 07:00:00 (CEST)Napoli/Capodichino, Italia (16289): precipitazioni: 18.07.2019 07:00:00 - 24.07.2019 07:00:00 (CEST)
Data & Tempo tt [°C] td [°C] ff [km/h] ff [kn] dd ppp [hPa] vv [km] rr [mm]
24.07.2019 07:00:00 26,0 12,0 8 4 NNE - 10 -
24.07.2019 06:00:00 24,0 12,0 5 3 ENE - 10 -
24.07.2019 05:00:00 24,0 12,2 5 3 N 1015,8 10 0,0
24.07.2019 04:00:00 26,0 11,0 8 4 NE - 10 -
24.07.2019 03:00:00 25,0 12,0 5 3 ONO - 10 -
24.07.2019 02:00:00 27,6 11,1 4 2 NE 1016,5 10 -
24.07.2019 01:00:00 27,0 12,0 2 1 - - 10 -
24.07.2019 00:00:00 28,0 13,0 8 4 NE - 10 -
23.07.2019 23:00:00 28,6 17,6 5 3 N 1016,6 10 0,0
23.07.2019 22:00:00 28,0 18,0 4 2 - - 10 -
23.07.2019 21:00:00 29,0 17,0 11 6 NO - 10 -
23.07.2019 20:00:00 31,0 16,6 9 5 ONO 1016,1 10 -
23.07.2019 19:00:00 32,0 18,0 16 9 NO - 10 -
23.07.2019 18:00:00 33,0 19,0 15 8 NO - 10 -
23.07.2019 17:00:00 33,6 18,2 16 9 ONO 1016,1 10 0,0
23.07.2019 16:00:00 36,0 12,0 13 7 E - 10 -
23.07.2019 15:00:00 36,0 11,0 16 9 ENE - 10 -
23.07.2019 14:00:00 35,5 12,3 11 6 - 1016,8 10 -
23.07.2019 13:00:00 33,0 16,0 9 5 - - 10 -
23.07.2019 12:00:00 33,0 16,0 9 5 NNO - 10 -
23.07.2019 11:00:00 33,0 16,4 5 3 - 1017,9 10 0,0
23.07.2019 10:00:00 31,0 18,0 5 3 NNE - 10 -
23.07.2019 09:00:00 28,0 20,0 4 2 - - 10 -
23.07.2019 08:00:00 26,6 22,0 4 2 - 1018,2 10 -
23.07.2019 07:00:00 25,0 22,0 2 1 - - 10 -
23.07.2019 06:00:00 24,0 22,0 2 1 - - 10 -
23.07.2019 05:00:00 24,6 21,7 4 2 - 1018,0 10 0,0
23.07.2019 04:00:00 24,0 19,0 2 1 - - 10 -
23.07.2019 03:00:00 25,0 21,0 2 1 - - 10 -
23.07.2019 02:00:00 25,1 21,1 2 1 - 1018,7 10 -
23.07.2019 01:00:00 26,0 20,0 4 2 NO - 10 -
23.07.2019 00:00:00 27,0 18,0 2 1 - - 10 -
22.07.2019 23:00:00 26,7 15,8 4 2 - 1019,3 10 0,0
22.07.2019 22:00:00 28,0 18,0 5 3 NNO - 10 -
22.07.2019 21:00:00 29,0 17,0 8 4 NO - 10 -
22.07.2019 20:00:00 29,3 16,7 9 5 NO 1019,0 10 -
22.07.2019 19:00:00 31,0 16,0 13 7 ONO - 10 -
22.07.2019 18:00:00 31,0 18,0 8 4 SSO - 10 -
22.07.2019 17:00:00 32,2 19,0 8 4 S 1019,1 10 0,0
22.07.2019 16:00:00 32,0 21,0 11 6 S - 10 -
22.07.2019 15:00:00 31,0 22,0 13 7 S - 10 -
22.07.2019 14:00:00 30,4 23,1 16 9 SSO 1020,0 10 -
22.07.2019 13:00:00 31,0 22,0 11 6 SSO - 10 -
22.07.2019 12:00:00 30,0 21,0 11 6 SSO - 10 -
22.07.2019 11:00:00 30,2 21,0 8 4 S 1020,7 10 0,0
22.07.2019 10:00:00 30,0 18,0 4 2 - - 10 -
22.07.2019 09:00:00 28,0 18,0 2 1 - - 10 -
22.07.2019 08:00:00 25,9 17,5 4 2 - 1020,6 10 -
22.07.2019 07:00:00 24,0 16,0 4 2 - - 10 -
22.07.2019 06:00:00 23,0 16,0 2 1 NO - 10 -
22.07.2019 05:00:00 22,9 16,3 4 2 NNE 1020,1 10 0,0
22.07.2019 04:00:00 24,0 17,0 2 1 - - 10 -
22.07.2019 03:00:00 24,0 17,0 4 2 NE - 10 -
22.07.2019 02:00:00 24,1 16,9 2 1 - 1020,8 10 -
22.07.2019 01:00:00 25,0 18,0 4 2 ENE - 10 -
22.07.2019 00:00:00 26,0 17,0 4 2 SSO - 10 -
21.07.2019 23:00:00 25,9 17,8 5 3 O 1020,9 10 0,0
21.07.2019 22:00:00 26,0 18,0 5 3 O - 10 -
21.07.2019 21:00:00 27,0 17,0 5 3 NO - 10 -
21.07.2019 20:00:00 28,1 17,4 15 8 NO 1020,0 10 -
21.07.2019 19:00:00 30,0 15,0 18 10 NO - 10 -
21.07.2019 18:00:00 31,0 16,0 21 11 NO - 10 -
21.07.2019 17:00:00 31,5 14,4 21 11 NO 1019,7 10 0,0
21.07.2019 16:00:00 33,0 17,0 16 9 NO - 10 -
21.07.2019 15:00:00 31,0 21,0 16 9 SSO - 10 -
21.07.2019 14:00:00 29,9 21,4 16 9 SSO 1020,2 10 -
21.07.2019 13:00:00 30,0 20,0 11 6 SSO - 10 -
21.07.2019 12:00:00 31,0 20,0 9 5 SSO - 10 -
21.07.2019 11:00:00 30,4 17,2 5 3 - 1020,4 10 0,0
21.07.2019 10:00:00 28,0 17,0 4 2 - - 10 -
21.07.2019 09:00:00 26,0 19,0 4 2 - - 10 -
21.07.2019 08:00:00 24,7 19,0 4 2 - 1020,6 10 -
21.07.2019 07:00:00 22,0 17,0 4 2 NE - 10 -
21.07.2019 06:00:00 22,0 19,0 4 2 NE - 10 -
21.07.2019 05:00:00 21,7 18,6 4 2 - 1020,0 10 0,0
21.07.2019 04:00:00 22,0 18,0 2 1 - - 10 -
21.07.2019 03:00:00 22,0 17,0 4 2 ONO - 10 -
21.07.2019 02:00:00 23,5 19,5 4 2 O 1020,2 10 -
21.07.2019 01:00:00 23,0 19,0 8 4 NE - 10 -
21.07.2019 00:00:00 24,0 19,0 2 1 - - 10 -
20.07.2019 23:00:00 24,7 19,8 8 4 NNO 1020,1 10 0,0
20.07.2019 22:00:00 25,0 20,0 9 5 NO - 10 -
20.07.2019 21:00:00 26,0 20,0 9 5 NO - 10 -
20.07.2019 20:00:00 26,9 18,8 15 8 NO 1019,0 10 -
20.07.2019 19:00:00 29,0 20,0 15 8 ONO - 10 -
20.07.2019 18:00:00 30,0 18,0 15 8 ONO - 10 -
20.07.2019 17:00:00 30,0 19,9 11 6 - 1018,6 10 0,0
20.07.2019 16:00:00 31,0 20,0 13 7 - - 10 -
20.07.2019 15:00:00 31,0 20,0 11 6 S - 10 -
20.07.2019 14:00:00 30,0 18,8 13 7 S 1019,2 10 -
20.07.2019 13:00:00 30,0 19,0 13 7 SSO - 10 -
20.07.2019 12:00:00 30,0 17,0 9 5 SO - 10 -
20.07.2019 11:00:00 28,8 17,2 8 4 SSE 1019,2 10 0,0
20.07.2019 10:00:00 27,0 19,0 4 2 - - 10 -
20.07.2019 09:00:00 26,0 19,0 4 2 - - 10 -
20.07.2019 08:00:00 23,4 18,2 5 3 - 1018,4 10 -
20.07.2019 07:00:00 21,0 18,0 5 3 NNE - 10 -
20.07.2019 06:00:00 20,0 18,0 8 4 NE - 10 -
20.07.2019 05:00:00 21,4 18,1 5 3 ENE 1017,7 10 0,0
20.07.2019 04:00:00 22,0 19,0 8 4 ENE - 10 -
20.07.2019 03:00:00 - - - - - - - -
20.07.2019 02:00:00 23,3 17,3 5 3 N 1017,4 10 -
20.07.2019 01:00:00 23,0 20,0 5 3 NNE - 10 -
20.07.2019 00:00:00 23,0 20,0 8 4 NE - 10 -
19.07.2019 23:00:00 24,7 20,6 4 2 - 1017,3 10 0,0
19.07.2019 22:00:00 25,0 21,0 8 4 NO - 10 -
19.07.2019 21:00:00 25,0 20,0 11 6 NO - 10 -
19.07.2019 20:00:00 25,6 20,0 15 8 NO 1016,8 10 -
19.07.2019 19:00:00 28,0 19,0 16 9 NO - 10 -
19.07.2019 18:00:00 29,0 19,0 16 9 ONO - 10 -
19.07.2019 17:00:00 29,0 17,8 16 9 NO 1016,3 10 0,0
19.07.2019 16:00:00 29,0 18,0 13 7 ONO - 10 -
19.07.2019 15:00:00 30,0 20,0 13 7 SSO - 10 -
19.07.2019 14:00:00 29,1 20,2 13 7 S 1016,3 10 -
19.07.2019 13:00:00 29,0 21,0 13 7 S - 10 -
19.07.2019 12:00:00 28,0 20,0 8 4 - - 10 -
19.07.2019 11:00:00 27,8 18,0 9 5 NO 1016,7 10 0,0
19.07.2019 10:00:00 27,0 19,0 5 3 - - 10 -
19.07.2019 09:00:00 24,0 19,0 4 2 - - 10 -
19.07.2019 08:00:00 23,6 19,1 4 2 - 1016,0 10 -
19.07.2019 07:00:00 22,0 18,0 4 2 ENE - 10 -
19.07.2019 06:00:00 21,0 17,0 4 2 NE - 10 -
19.07.2019 05:00:00 20,9 16,5 4 2 - 1015,0 10 0,0
19.07.2019 04:00:00 21,0 17,0 4 2 NE - 10 -
19.07.2019 03:00:00 22,0 16,0 2 1 - - 10 -
19.07.2019 02:00:00 22,5 16,3 2 1 NE 1015,2 10 -
19.07.2019 01:00:00 23,0 18,0 2 1 - - 10 -
19.07.2019 00:00:00 23,0 19,0 2 1 - - 10 -
18.07.2019 23:00:00 23,5 17,9 4 2 - 1014,7 10 0,0
18.07.2019 22:00:00 23,0 18,0 11 6 O - 10 -
18.07.2019 21:00:00 25,0 17,0 8 4 O - 10 -
18.07.2019 20:00:00 26,2 16,9 11 6 O 1013,4 10 -
18.07.2019 19:00:00 27,0 17,0 9 5 SSO - 10 -
18.07.2019 18:00:00 27,0 17,0 13 7 SSO - 10 -
18.07.2019 17:00:00 27,3 17,1 15 8 SSO 1013,1 10 0,0
18.07.2019 16:00:00 28,0 18,0 18 10 SSO - 10 -
18.07.2019 15:00:00 28,0 17,0 18 10 SO - 10 -
18.07.2019 14:00:00 28,1 17,3 18 10 SSO 1013,0 10 -
18.07.2019 13:00:00 - - - - - - - -
18.07.2019 12:00:00 27,0 16,0 15 8 SO - 10 -
18.07.2019 11:00:00 26,9 16,4 11 6 - 1013,1 10 0,0
18.07.2019 10:00:00 26,0 17,0 5 3 - - 10 -
18.07.2019 09:00:00 25,0 17,0 5 3 - - 10 -
18.07.2019 08:00:00 22,3 14,5 5 3 NE 1012,4 10 -
18.07.2019 07:00:00 20,0 14,0 5 3 NE - 10 -

tt = Temperatura
td = dewpoint
ff = velocità del vento
dd = direzione del vento
ppp = reduced air pressure
vv = visibility
rr = precipitazioni

Stazioni seguenti

WeatherPro
AMSI
MeteoEarth